N1GUJ Weather Reports


Display with metric or nautical units.
time (UTC)temp
F
wind
direction
speed
MPH
gust
MPH
rain 1hr
in
rain 24hr
in
rain mn
in
humidity
%
barometer
mb
20260901071935 60 210 0.0 1.0 0.00 0.00 0.00 78 1016.3
20260901071432 60 210 0.0 2.0 0.00 0.00 0.00 77 1016.3
20260901070935 60 211 0.0 1.0 0.00 0.00 0.00 77 1016.4
20260901070432 60 210 0.0 1.0 0.00 0.00 0.00 76 1016.3
20260901065931 60 211 0.0 2.0 0.00 0.00 0.00 77 1016.5
20260901065434 60 192 0.0 2.0 0.00 0.00 0.00 77 1016.6
20260901064931 60 192 0.0 0.0 0.00 0.00 0.00 77 1016.6
20260901064437 60 192 0.0 3.0 0.00 0.00 0.00 78 1016.6
20260901063931 60 171 1.0 2.0 0.00 0.00 0.00 78 1016.6
20260901063431 59 171 0.0 1.0 0.00 0.00 0.00 78 1016.6
20260901062932 59 171 0.0 0.0 0.00 0.00 0.00 78 1016.7
20260901062431 59 171 0.0 1.0 0.00 0.00 0.00 78 1016.7
20260901061931 59 171 0.0 2.0 0.00 0.00 0.00 78 1016.7
20260901061431 60 171 0.0 1.0 0.00 0.00 0.00 78 1016.8
20260901060934 60 171 0.0 1.0 0.00 0.00 0.00 78 1016.8
20260901060437 60 172 0.0 1.0 0.00 0.00 0.00 78 1016.9
20260901055934 60 172 0.0 1.0 0.00 0.00 0.00 78 1017.0
20260901055434 60 172 0.0 1.0 0.00 0.00 0.00 78 1017.0
20260901054931 59 172 1.0 1.0 0.00 0.00 0.00 78 1017.0
20260901054437 59 172 0.0 0.0 0.00 0.00 0.00 79 1017.1
20260901053931 59 172 0.0 1.0 0.00 0.00 0.00 79 1017.1
20260901053437 59 172 0.0 0.0 0.00 0.00 0.00 79 1017.0
20260901052932 59 172 0.0 0.0 0.00 0.00 0.00 79 1017.0
20260901052431 60 172 0.0 1.0 0.00 0.00 0.00 79 1017.1
20260901051937 60 172 0.0 0.0 0.00 0.00 0.00 79 1017.2
20260901051437 60 172 0.0 1.0 0.00 0.00 0.00 78 1017.1
20260901050931 60 172 0.0 1.0 0.00 0.00 0.00 78 1017.1
20260901050437 60 172 0.0 1.0 0.00 0.00 0.00 78 1017.2
20260901045934 60 172 0.0 1.0 0.00 0.00 0.00 79 1017.2
20260901045434 60 172 0.0 1.0 0.00 0.00 0.00 78 1017.1
20260901044937 60 173 0.0 1.0 0.00 0.00 0.00 79 1017.1
20260901044434 60 173 0.0 2.0 0.00 0.00 0.00 78 1017.2
20260901043931 60 173 0.0 3.0 0.00 0.00 0.00 78 1017.3
20260901043431 60 173 0.0 0.0 0.00 0.00 0.00 79 1017.3
20260901042931 60 173 0.0 1.0 0.00 0.00 0.00 78 1017.3
20260901042434 60 173 0.0 4.0 0.00 0.00 0.00 79 1017.4
20260901041934 60 173 2.0 4.0 0.00 0.00 0.00 80 1017.4
20260901041437 60 203 1.0 1.0 0.00 0.00 0.00 80 1017.3
20260901040934 59 217 0.0 2.0 0.00 0.00 0.00 80 1017.4
20260901035934 59 135 0.0 2.0 0.00 0.00 0.00 81 1017.2
20260901035434 59 135 0.0 2.0 0.00 0.00 0.00 81 1017.1
20260901034934 59 135 0.0 2.0 0.00 0.00 0.00 81 1017.0
20260901034431 59 135 1.0 1.0 0.00 0.00 0.00 82 1017.0
20260901033937 59 135 0.0 1.0 0.00 0.00 0.00 83 1017.0
20260901033431 59 135 0.0 1.0 0.00 0.00 0.00 83 1017.1
20260901032930 60 135 0.0 0.0 0.00 0.00 0.00 83 1017.0
20260901032437 60 135 0.0 1.0 0.00 0.00 0.00 83 1017.0
20260901031931 60 135 0.0 0.0 0.00 0.00 0.00 83 1017.0
20260901031431 60 135 0.0 3.0 0.00 0.00 0.00 82 1016.9
20260901030931 60 135 0.0 1.0 0.00 0.00 0.00 82 1017.0
20260901030433 60 135 0.0 2.0 0.00 0.00 0.00 81 1017.0
20260901025940 60 135 0.0 1.0 0.00 0.00 0.00 81 1017.1
20260901025433 60 135 0.0 1.0 0.00 0.00 0.00 81 1017.1
20260901024930 60 135 0.0 1.0 0.00 0.00 0.00 81 1017.2
20260901024434 60 135 0.0 3.0 0.00 0.00 0.00 80 1017.2
20260901023933 60 135 0.0 2.0 0.00 0.00 0.00 80 1017.2
20260901023436 60 135 1.0 2.0 0.00 0.00 0.00 80 1017.2
20260901022930 60 135 0.0 2.0 0.00 0.00 0.00 80 1017.2
20260901022433 60 135 0.0 2.0 0.00 0.00 0.00 80 1017.2
20260901021933 60 135 0.0 2.0 0.00 0.00 0.00 81 1017.2
20260901021433 60 135 1.0 2.0 0.00 0.00 0.00 81 1017.2
20260901020940 60 135 0.0 2.0 0.00 0.00 0.00 81 1017.2
20260901020433 60 135 0.0 4.0 0.00 0.00 0.00 82 1017.2
20260901015934 60 232 0.0 0.0 0.00 0.00 0.00 82 1017.2
20260901015430 60 232 0.0 0.0 0.00 0.00 0.00 82 1017.3
20260901014930 60 232 0.0 0.0 0.00 0.00 0.00 82 1017.3
20260901014430 60 232 0.0 0.0 0.00 0.00 0.00 83 1017.3
20260901013930 60 232 0.0 0.0 0.00 0.00 0.00 83 1017.4
20260901013431 60 232 0.0 0.0 0.00 0.00 0.00 84 1017.3
20260901012930 60 232 0.0 0.0 0.00 0.00 0.00 84 1017.2
20260901012434 60 232 0.0 0.0 0.00 0.00 0.00 84 1017.3
20260901011930 59 232 0.0 0.0 0.00 0.00 0.00 85 1017.3
20260901011430 59 232 0.0 0.0 0.00 0.00 0.00 85 1017.3
20260901010936 59 232 0.0 0.0 0.00 0.00 0.00 85 1017.3
20260901010430 59 232 0.0 0.0 0.00 0.00 0.00 84 1017.3
20260901005930 59 232 0.0 0.0 0.00 0.00 0.00 83 1017.2
20260901005430 59 232 0.0 0.0 0.00 0.00 0.00 82 1017.1
20260901004930 60 232 0.0 0.0 0.00 0.00 0.00 81 1017.1
20260901004434 60 232 0.0 0.0 0.00 0.00 0.00 80 1017.2
20260901003930 60 232 0.0 0.0 0.00 0.00 0.00 79 1017.2
20260901003436 61 232 0.0 0.0 0.00 0.00 0.00 79 1017.3
20260901002933 61 232 0.0 0.0 0.00 0.00 0.00 78 1017.2
20260901002433 61 232 0.0 0.0 0.00 0.00 0.00 77 1017.2
20260901001930 62 232 0.0 0.0 0.00 0.00 0.00 77 1017.1
20260901001430 62 232 0.0 0.0 0.00 0.00 0.00 76 1017.2
20260901000930 62 232 0.0 0.0 0.00 0.00 0.00 75 1017.2
20260901000435 63 232 0.0 0.0 0.00 0.00 0.00 76 1017.3
20260831235933 63 232 0.0 0.0 0.00 0.00 0.00 75 1017.2
20260831235430 64 232 0.0 0.0 0.00 0.00 0.00 75 1017.2
20260831234930 64 232 0.0 0.0 0.00 0.00 0.00 75 1017.2
20260831234436 64 232 0.0 0.0 0.00 0.00 0.00 75 1017.2
20260831233933 65 232 0.0 0.0 0.00 0.00 0.00 75 1017.1
20260831233436 65 232 0.0 0.0 0.00 0.00 0.00 75 1017.0
20260831232935 65 232 0.0 0.0 0.00 0.00 0.00 74 1017.0
20260831232436 66 232 0.0 0.0 0.00 0.00 0.00 74 1017.0
20260831231936 66 232 0.0 0.0 0.00 0.00 0.00 73 1017.0
20260831231429 66 232 0.0 0.0 0.00 0.00 0.00 72 1017.1
20260831230930 67 232 0.0 0.0 0.00 0.00 0.00 70 1017.1
20260831230430 67 232 0.0 0.0 0.00 0.00 0.00 69 1017.1
20260831225929 67 232 0.0 0.0 0.00 0.00 0.00 69 1017.2
20260831225430 68 232 0.0 0.0 0.00 0.00 0.00 68 1017.2
20260831224933 68 232 0.0 0.0 0.00 0.00 0.00 70 1017.2
20260831224429 68 232 0.0 1.0 0.00 0.00 0.00 68 1017.1
20260831223932 69 232 0.0 0.0 0.00 0.00 0.00 69 1017.1
20260831223432 69 232 0.0 0.0 0.00 0.00 0.00 67 1017.2
20260831222932 70 232 0.0 0.0 0.00 0.00 0.00 66 1017.2
20260831222432 70 232 0.0 0.0 0.00 0.00 0.00 64 1017.2
20260831221933 71 232 0.0 0.0 0.00 0.00 0.00 63 1017.2
20260831221432 72 232 0.0 0.0 0.00 0.00 0.00 59 1017.2
20260831220932 73 232 0.0 0.0 0.00 0.00 0.00 56 1017.3
20260831220429 74 232 0.0 0.0 0.00 0.00 0.00 57 1017.3
20260831215930 75 232 0.0 0.0 0.00 0.00 0.00 56 1017.3
20260831215429 75 232 0.0 0.0 0.00 0.00 0.00 53 1017.2
20260831214932 76 232 0.0 0.0 0.00 0.00 0.00 49 1017.3
20260831214429 76 232 0.0 0.0 0.00 0.00 0.00 47 1017.3
20260831213929 76 232 0.0 0.0 0.00 0.00 0.00 44 1017.3
20260831213429 77 232 0.0 0.0 0.00 0.00 0.00 48 1017.2
20260831212929 77 232 0.0 1.0 0.00 0.00 0.00 46 1017.3
20260831212435 77 232 0.0 0.0 0.00 0.00 0.00 42 1017.3
20260831211932 77 232 0.0 0.0 0.00 0.00 0.00 43 1017.3
20260831211435 77 232 0.0 0.0 0.00 0.00 0.00 47 1017.3
20260831210930 77 232 0.0 0.0 0.00 0.00 0.00 44 1017.4
20260831210435 77 232 0.0 0.0 0.00 0.00 0.00 43 1017.4
20260831205929 77 232 0.0 2.0 0.00 0.00 0.00 47 1017.5
20260831205432 77 232 0.0 0.0 0.00 0.00 0.00 44 1017.5
20260831204932 77 232 0.0 1.0 0.00 0.00 0.00 47 1017.4
20260831204430 77 232 0.0 2.0 0.00 0.00 0.00 44 1017.4
20260831203935 77 232 0.0 1.0 0.00 0.00 0.00 45 1017.3
20260831203432 77 232 0.0 1.0 0.00 0.00 0.00 41 1017.4
20260831202929 77 232 0.0 2.0 0.00 0.00 0.00 41 1017.4
20260831202432 77 232 0.0 0.0 0.00 0.00 0.00 43 1017.4
20260831201929 77 232 0.0 1.0 0.00 0.00 0.00 41 1017.4
20260831201432 77 232 0.0 1.0 0.00 0.00 0.00 41 1017.4
20260831200929 77 232 0.0 1.0 0.00 0.00 0.00 44 1017.4
20260831200435 77 232 0.0 1.0 0.00 0.00 0.00 42 1017.5
20260831195929 77 232 0.0 1.0 0.00 0.00 0.00 43 1017.6
20260831195435 76 232 0.0 1.0 0.00 0.00 0.00 44 1017.7
20260831194929 76 228 0.0 1.0 0.00 0.00 0.00 51 1017.8
20260831194429 75 228 0.0 2.0 0.00 0.00 0.00 48 1017.9
20260831193935 75 237 0.0 3.0 0.00 0.00 0.00 46 1018.0
20260831193429 75 236 2.0 3.0 0.00 0.00 0.00 46 1018.0
20260831192929 75 236 0.0 3.0 0.00 0.00 0.00 48 1018.2
20260831192429 74 210 0.0 3.0 0.00 0.00 0.00 46 1018.2
20260831191932 74 162 0.0 2.0 0.00 0.00 0.00 48 1018.3
20260831191431 74 162 0.0 1.0 0.00 0.00 0.00 48 1018.2
20260831190929 73 162 0.0 1.0 0.00 0.00 0.00 49 1018.3
20260831190432 73 162 0.0 2.0 0.00 0.00 0.00 50 1018.3
20260831185932 73 162 0.0 2.0 0.00 0.00 0.00 48 1018.3
20260831185429 73 162 0.0 1.0 0.00 0.00 0.00 50 1018.2
20260831184932 73 162 0.0 1.0 0.00 0.00 0.00 51 1018.3
20260831184429 73 162 0.0 1.0 0.00 0.00 0.00 49 1018.4
20260831183928 73 162 0.0 3.0 0.00 0.00 0.00 52 1018.4
20260831183428 73 162 0.0 3.0 0.00 0.00 0.00 53 1018.4
20260831182929 73 162 0.0 3.0 0.00 0.00 0.00 53 1018.4
20260831182428 73 230 1.0 3.0 0.00 0.00 0.00 51 1018.5
20260831181934 73 229 0.0 2.0 0.00 0.00 0.00 52 1018.6
20260831181431 73 229 0.0 4.0 0.00 0.00 0.00 57 1018.7
20260831180928 73 229 0.0 2.0 0.00 0.00 0.00 56 1018.7
20260831180431 73 229 0.0 3.0 0.00 0.00 0.00 53 1018.8
20260831175928 73 228 0.0 1.0 0.00 0.00 0.00 60 1018.8
20260831175428 73 228 0.0 2.0 0.00 0.00 0.00 61 1018.8
20260831174931 72 228 0.0 1.0 0.00 0.00 0.00 60 1018.8
20260831174431 72 228 0.0 3.0 0.00 0.00 0.00 58 1018.8
20260831173934 72 219 0.0 2.0 0.00 0.00 0.00 65 1018.8
20260831173431 72 219 0.0 2.0 0.00 0.00 0.00 60 1018.8
20260831172928 72 219 0.0 2.0 0.00 0.00 0.00 64 1018.8
20260831172429 72 219 1.0 2.0 0.00 0.00 0.00 63 1018.8
20260831171928 71 219 0.0 0.0 0.00 0.00 0.00 63 1018.8
20260831171434 72 219 0.0 1.0 0.00 0.00 0.00 63 1018.8
20260831170928 72 219 0.0 3.0 0.00 0.00 0.00 65 1018.9
20260831170431 71 218 0.0 2.0 0.00 0.00 0.00 64 1018.8
20260831165931 71 218 0.0 2.0 0.00 0.00 0.00 67 1019.0
20260831165431 71 226 0.0 1.0 0.00 0.00 0.00 67 1019.0
20260831164928 71 226 0.0 2.0 0.00 0.00 0.00 66 1019.1
20260831164428 70 226 0.0 2.0 0.00 0.00 0.00 69 1019.2
20260831163931 70 226 1.0 3.0 0.00 0.00 0.00 70 1019.2
20260831163428 71 215 1.0 4.0 0.00 0.00 0.00 65 1019.2
20260831162931 71 235 0.0 2.0 0.00 0.00 0.00 66 1019.1
20260831162428 71 235 0.0 2.0 0.00 0.00 0.00 68 1019.3
20260831161934 70 237 1.0 1.0 0.00 0.00 0.00 69 1019.3
20260831161428 70 237 0.0 5.0 0.00 0.00 0.00 68 1019.4
20260831160928 71 197 0.0 1.0 0.00 0.00 0.00 67 1019.5
20260831160428 71 197 1.0 4.0 0.00 0.00 0.00 68 1019.5
20260831155934 71 199 0.0 3.0 0.00 0.00 0.00 68 1019.6
20260831155428 71 197 0.0 3.0 0.00 0.00 0.00 65 1019.5
20260831154928 71 232 0.0 1.0 0.00 0.00 0.00 67 1019.5
20260831154428 71 232 0.0 2.0 0.00 0.00 0.00 68 1019.5
20260831153931 71 232 0.0 4.0 0.00 0.00 0.00 65 1019.5
20260831153428 72 232 0.0 2.0 0.00 0.00 0.00 66 1019.5
20260831152934 72 232 0.0 1.0 0.00 0.00 0.00 68 1019.5
20260831152428 71 232 0.0 0.0 0.00 0.00 0.00 67 1019.5
20260831151927 70 232 0.0 0.0 0.00 0.00 0.00 67 1019.6
20260831151430 70 232 0.0 2.0 0.00 0.00 0.00 65 1019.7
20260831150927 70 231 2.0 2.0 0.00 0.00 0.00 68 1019.7
20260831150428 69 159 1.0 2.0 0.00 0.00 0.00 67 1019.7
20260831145927 69 159 0.0 0.0 0.00 0.00 0.00 72 1019.8
20260831145428 68 159 0.0 0.0 0.00 0.00 0.00 72 1019.8
20260831144931 67 159 0.0 2.0 0.00 0.00 0.00 73 1019.7
20260831144428 67 159 0.0 1.0 0.00 0.00 0.00 74 1019.8
20260831143931 66 159 0.0 0.0 0.00 0.00 0.00 77 1019.7
20260831143427 65 159 0.0 1.0 0.00 0.00 0.00 80 1019.7
20260831142927 64 159 0.0 1.0 0.00 0.00 0.00 82 1019.8
20260831142433 63 159 0.0 3.0 0.00 0.00 0.00 84 1019.8
20260831141930 63 159 0.0 0.0 0.00 0.00 0.00 88 1019.9
20260831141430 62 159 0.0 1.0 0.00 0.00 0.00 89 1019.9
20260831140930 61 159 0.0 1.0 0.00 0.00 0.00 90 1020.0
20260831140457 60 159 0.0 1.0 0.00 0.00 0.00 92 1020.0
20260831135933 59 159 0.0 1.0 0.00 0.00 0.00 93 1020.0
20260831135427 59 159 0.0 2.0 0.00 0.00 0.00 93 1020.0
20260831134930 58 159 0.0 1.0 0.00 0.00 0.00 94 1020.1
20260831134430 58 159 0.0 2.0 0.00 0.00 0.00 94 1020.2
20260831133930 58 159 0.0 1.0 0.00 0.00 0.00 94 1020.2
20260831133428 58 159 0.0 1.0 0.00 0.00 0.00 94 1020.2
20260831132933 57 159 0.0 1.0 0.00 0.00 0.00 94 1020.2
20260831132428 57 159 0.0 0.0 0.00 0.00 0.00 94 1020.3
20260831131930 57 159 0.0 0.0 0.00 0.00 0.00 95 1020.3
20260831131430 56 159 0.0 0.0 0.00 0.00 0.00 94 1020.4
20260831130927 56 159 0.0 1.0 0.00 0.00 0.00 94 1020.4
20260831130430 55 159 0.0 1.0 0.00 0.00 0.00 94 1020.4
20260831125934 55 159 0.0 2.0 0.00 0.00 0.00 94 1020.3
20260831125436 54 159 0.0 2.0 0.00 0.00 0.00 94 1020.3
20260831124930 54 159 0.0 0.0 0.00 0.00 0.00 94 1020.4
20260831124430 54 159 0.0 0.0 0.00 0.00 0.00 94 1020.4
20260831123927 53 159 0.0 0.0 0.00 0.00 0.00 94 1020.5
20260831123430 53 159 0.0 0.0 0.00 0.00 0.00 94 1020.5
20260831122930 53 159 0.0 0.0 0.00 0.00 0.00 93 1020.5
20260831122433 53 159 0.0 0.0 0.00 0.00 0.00 93 1020.4
20260831121933 53 159 0.0 0.0 0.00 0.00 0.00 93 1020.4
20260831121427 53 159 0.0 0.0 0.00 0.00 0.00 93 1020.4
20260831120930 52 159 0.0 0.0 0.00 0.00 0.00 93 1020.4
20260831120427 52 159 0.0 0.0 0.00 0.00 0.00 93 1020.3
20260831115927 52 159 0.0 1.0 0.00 0.00 0.00 93 1020.3
20260831115427 52 159 0.0 2.0 0.00 0.00 0.00 93 1020.2
20260831114927 52 159 0.0 0.0 0.00 0.00 0.00 93 1020.2
20260831114433 52 159 0.0 0.0 0.00 0.00 0.00 93 1020.2
20260831113927 52 159 0.0 1.0 0.00 0.00 0.00 93 1020.2
20260831113430 52 158 0.0 1.0 0.00 0.00 0.00 93 1020.1
20260831112930 52 158 0.0 0.0 0.00 0.00 0.00 93 1020.1
20260831112433 52 158 0.0 1.0 0.00 0.00 0.00 93 1020.1
20260831111929 52 158 0.0 0.0 0.00 0.00 0.00 93 1020.0
20260831111430 52 158 0.0 0.0 0.00 0.00 0.00 93 1020.0
20260831110930 52 158 0.0 0.0 0.00 0.00 0.00 92 1019.9
20260831110427 52 158 0.0 2.0 0.00 0.00 0.00 92 1019.8
20260831105930 52 158 0.0 1.0 0.00 0.00 0.00 92 1019.7
20260831105430 52 158 0.0 0.0 0.00 0.00 0.00 92 1019.6
20260831104926 52 158 0.0 2.0 0.00 0.00 0.00 92 1019.5
20260831104430 52 104 0.0 1.0 0.00 0.00 0.00 92 1019.6
20260831103927 52 104 0.0 1.0 0.00 0.00 0.00 92 1019.5
20260831103426 52 104 0.0 1.0 0.00 0.00 0.00 92 1019.4
20260831102929 53 104 0.0 1.0 0.00 0.00 0.00 92 1019.4
20260831102432 53 104 0.0 1.0 0.00 0.00 0.00 92 1019.5
20260831101932 53 105 0.0 0.0 0.00 0.00 0.00 92 1019.4
20260831101426 53 105 0.0 0.0 0.00 0.00 0.00 92 1019.5
20260831100932 53 105 0.0 0.0 0.00 0.00 0.00 92 1019.4
20260831100427 53 105 0.0 0.0 0.00 0.00 0.00 92 1019.3
20260831095927 53 105 0.0 0.0 0.00 0.00 0.00 92 1019.3
20260831095426 53 105 0.0 0.0 0.00 0.00 0.00 92 1019.2
20260831094932 53 105 0.0 0.0 0.00 0.00 0.00 92 1019.2
20260831094426 54 105 0.0 0.0 0.00 0.00 0.00 92 1019.2
20260831093933 54 105 0.0 0.0 0.00 0.00 0.00 92 1019.2
20260831093426 54 105 0.0 0.0 0.00 0.00 0.00 92 1019.2
20260831092929 54 105 0.0 0.0 0.00 0.00 0.00 92 1019.2
20260831092429 54 105 0.0 0.0 0.00 0.00 0.00 92 1019.1
20260831091926 54 105 0.0 0.0 0.00 0.00 0.00 92 1019.1
20260831091429 54 105 0.0 0.0 0.00 0.00 0.00 92 1019.1
20260831090926 54 105 0.0 0.0 0.00 0.00 0.00 92 1019.1
20260831090426 54 105 0.0 0.0 0.00 0.00 0.00 92 1019.0
20260831085926 54 105 0.0 0.0 0.00 0.00 0.00 92 1019.0
20260831085429 54 105 0.0 0.0 0.00 0.00 0.00 92 1019.0
20260831084926 54 105 0.0 0.0 0.00 0.00 0.00 92 1019.0
20260831084426 54 105 0.0 0.0 0.00 0.00 0.00 92 1019.0
20260831083926 54 105 0.0 0.0 0.00 0.00 0.00 92 1019.1
20260831083429 54 105 0.0 0.0 0.00 0.00 0.00 92 1019.1
20260831082926 55 105 0.0 0.0 0.00 0.00 0.00 92 1019.1
20260831082426 55 105 0.0 0.0 0.00 0.00 0.00 92 1019.1
20260831081926 55 105 0.0 1.0 0.00 0.00 0.00 92 1019.1
20260831081429 55 105 0.0 0.0 0.00 0.00 0.00 92 1019.0
20260831080929 55 105 0.0 0.0 0.00 0.00 0.00 92 1019.1
20260831080426 55 105 0.0 0.0 0.00 0.00 0.00 92 1018.9
20260831075932 55 105 0.0 1.0 0.00 0.00 0.00 92 1018.8
20260831075432 55 105 0.0 1.0 0.00 0.00 0.00 92 1018.8
20260831074926 55 105 0.0 0.0 0.00 0.00 0.00 92 1018.8
20260831074429 55 105 0.0 0.0 0.00 0.00 0.00 92 1018.8
20260831073929 55 105 0.0 0.0 0.00 0.00 0.00 92 1018.7
20260831073425 55 105 0.0 0.0 0.00 0.00 0.00 92 1018.7
20260831072926 55 105 0.0 0.0 0.00 0.00 0.00 92 1018.7
20260831072426 55 105 0.0 0.0 0.00 0.00 0.00 91 1018.6